Weyers Cave, VA

11:06 AM EDT on September 29, 2016 (GMT -0400)
Shenandoah Valley Regional

Weather History for KSHD - February, 2014

Change the Weather History Date:

Saturday, February 1, 2014

  Actual Average Record
Temperature  
Mean Temperature 38 °F -  
Max Temperature 54 °F 44 °F 75 °F (2002)
Min Temperature 21 °F 25 °F 5 °F (2004)
Degree Days  
Heating Degree Days 28    
Moisture  
Dew Point 17 °F    
Average Humidity 51    
Maximum Humidity 83    
Minimum Humidity 19    
Precipitation  
Precipitation 0.00 in - - ()
Sea Level Pressure  
Sea Level Pressure 30.14 in    
Wind  
Wind Speed 2 mph (South)    
Max Wind Speed 15 mph    
Max Gust Speed 21 mph    
Visibility 10 miles    
Events      
Averages and records for this station are not official NWS values.
T = Trace of Precipitation, MM = Missing Value Source: NWS Daily Summary

Daily Weather History Graph

Daily Weather History Graph

Search for Another Location

Airport or City:

Trip Planner

Search our weather history database for the weather conditions in past years. The results will help you decide how hot, cold, wet, or windy it might be!

Date:

Astronomy

Feb. 01, 2014 Rise Set
Actual Time 7:20 AM EST 5:38 PM EST
Civil Twilight 6:52 AM EST 6:06 PM EST
Nautical Twilight 6:21 AM EST 6:37 PM EST
Astronomical Twilight 5:50 AM EST 7:08 PM EST
Moon 8:11 AM EST (2/1) 8:08 PM EST (2/1)
Length of Visible Light 11h 13m
Length of Day
10h 17m
Waxing Crescent, 5% of the Moon is Illuminated
Feb 1
Waxing Crescent
Feb 6
First Quarter
Feb 14
Full
Feb 22
Last Quarter
Mar 1
New

Hourly Weather History & Observations

Time (EST) Temp. Windchill Dew Point Humidity Pressure Visibility Wind Dir Wind Speed Gust Speed Precip Events Conditions
12:15 AM 26.8 °F - 18.3 °F 70% 30.19 in 10.0 mi Calm Calm - N/A   Clear
12:35 AM 27.0 °F - 17.6 °F 68% 30.19 in 10.0 mi Calm Calm - N/A   Clear
12:55 AM 27.0 °F - 17.4 °F 67% 30.19 in 10.0 mi Calm Calm - N/A   Clear
1:15 AM 26.1 °F - 17.6 °F 70% 30.19 in 10.0 mi Calm Calm - N/A   Clear
1:35 AM 26.4 °F - 17.6 °F 69% 30.19 in 10.0 mi Calm Calm - N/A   Clear
1:55 AM 26.8 °F - 17.4 °F 68% 30.19 in 10.0 mi Calm Calm - N/A   Clear
2:15 AM 26.8 °F - 17.4 °F 68% 30.20 in 10.0 mi Calm Calm - N/A   Clear
2:35 AM 25.5 °F - 17.2 °F 71% 30.20 in 10.0 mi Calm Calm - N/A   Clear
2:55 AM 24.6 °F - 17.6 °F 75% 30.19 in 10.0 mi Calm Calm - N/A   Clear
3:15 AM 25.2 °F - 17.6 °F 73% 30.19 in 10.0 mi Calm Calm - N/A   Clear
3:35 AM 24.4 °F - 18.3 °F 78% 30.19 in 10.0 mi Calm Calm - N/A   Clear
3:55 AM 23.7 °F - 18.3 °F 80% 30.19 in 10.0 mi Calm Calm - N/A   Clear
4:15 AM 24.3 °F - 18.5 °F 79% 30.20 in 10.0 mi Calm Calm - N/A   Clear
4:35 AM 25.3 °F - 18.1 °F 74% 30.20 in 10.0 mi Calm Calm - N/A   Clear
4:55 AM 23.7 °F - 17.8 °F 78% 30.21 in 10.0 mi Calm Calm - N/A   Clear
5:15 AM 23.5 °F - 17.8 °F 79% 30.21 in 10.0 mi Calm Calm - N/A   Clear
5:35 AM 23.0 °F - 17.4 °F 79% 30.22 in 10.0 mi Calm Calm - N/A   Clear
5:55 AM 22.6 °F - 17.2 °F 80% 30.23 in 10.0 mi Calm Calm - N/A   Clear
6:15 AM 23.5 °F - 17.6 °F 78% 30.23 in 10.0 mi Calm Calm - N/A   Clear
6:35 AM 21.9 °F - 17.6 °F 83% 30.23 in 10.0 mi Calm Calm - N/A   Clear
6:55 AM 22.5 °F - 17.4 °F 81% 30.24 in 10.0 mi Calm Calm - N/A   Clear
7:15 AM 21.9 °F - 17.2 °F 82% 30.24 in 10.0 mi Calm Calm - N/A   Clear
7:35 AM 22.1 °F - 17.8 °F 83% 30.24 in 10.0 mi Calm Calm - N/A   Clear
7:55 AM 22.6 °F - 18.1 °F 83% 30.25 in 10.0 mi Calm Calm - N/A   Clear
8:15 AM 24.4 °F - 19.6 °F 82% 30.25 in 10.0 mi Calm Calm - N/A   Clear
8:35 AM 26.4 °F - 19.9 °F 77% 30.24 in 10.0 mi Calm Calm - N/A   Clear
8:55 AM 28.2 °F - 20.7 °F 73% 30.25 in 10.0 mi Calm Calm - N/A   Clear
9:15 AM 30.6 °F - 21.4 °F 69% 30.25 in 10.0 mi Calm Calm - N/A   Clear
9:35 AM 32.0 °F - 21.9 °F 66% 30.24 in 10.0 mi Calm Calm - N/A   Clear
9:55 AM 34.9 °F - 21.2 °F 57% 30.24 in 10.0 mi Calm Calm - N/A   Clear
10:15 AM 36.9 °F - 20.7 °F 52% 30.24 in 10.0 mi Calm Calm - N/A   Clear
10:35 AM 38.7 °F - 19.2 °F 46% 30.23 in 10.0 mi Calm Calm - N/A   Clear
10:55 AM 40.8 °F 38.8 °F 18.7 °F 41% 30.23 in 10.0 mi South 3.5 mph - N/A   Clear
11:15 AM 41.9 °F 40.0 °F 18.3 °F 39% 30.22 in 10.0 mi South 3.5 mph - N/A   Clear
11:35 AM 45.1 °F 42.8 °F 18.9 °F 35% 30.20 in 10.0 mi SSW 4.6 mph - N/A   Clear
11:55 AM 47.8 °F - 18.9 °F 32% 30.19 in 10.0 mi South 3.5 mph - N/A   Clear
12:15 PM 50.9 °F - 13.3 °F 22% 30.17 in 10.0 mi SSW 11.5 mph - N/A   Clear
12:35 PM 50.9 °F - 12.7 °F 22% 30.16 in 10.0 mi SSW 11.5 mph - N/A   Clear
12:55 PM 52.2 °F - 13.3 °F 21% 30.14 in 10.0 mi SSW 10.4 mph - N/A   Clear
1:15 PM 52.5 °F - 12.4 °F 20% 30.12 in 10.0 mi SSW 9.2 mph - N/A   Clear
1:35 PM 53.8 °F - 12.7 °F 20% 30.10 in 10.0 mi SSW 9.2 mph - N/A   Clear
1:55 PM 53.8 °F - 12.2 °F 19% 30.09 in 10.0 mi SSE 11.5 mph - N/A   Clear
2:15 PM 54.1 °F - 12.4 °F 19% 30.08 in 10.0 mi South 12.7 mph 18.4 mph N/A   Clear
2:35 PM 54.0 °F - 12.2 °F 19% 30.08 in 10.0 mi South 12.7 mph 20.7 mph N/A   Clear
2:55 PM 53.8 °F - 12.6 °F 19% 30.08 in 10.0 mi South 13.8 mph 18.4 mph N/A   Clear
3:15 PM 54.5 °F - 12.0 °F 19% 30.07 in 10.0 mi SSE 15.0 mph - N/A   Clear
3:35 PM 54.5 °F - 12.2 °F 19% 30.07 in 10.0 mi South 12.7 mph 19.6 mph N/A   Clear
3:55 PM 53.8 °F - 11.7 °F 19% 30.07 in 10.0 mi SSE 11.5 mph 17.3 mph N/A   Clear
4:15 PM 53.2 °F - 12.2 °F 20% 30.08 in 10.0 mi SSE 12.7 mph 17.3 mph N/A   Clear
4:35 PM 52.9 °F - 13.3 °F 21% 30.08 in 10.0 mi SSE 9.2 mph - N/A   Clear
4:55 PM 51.8 °F - 13.5 °F 22% 30.08 in 10.0 mi South 8.1 mph - N/A   Clear
5:15 PM 50.9 °F - 14.0 °F 23% 30.08 in 10.0 mi South 8.1 mph - N/A   Clear
5:35 PM 49.6 °F - 14.5 °F 25% 30.07 in 10.0 mi South 6.9 mph - N/A   Clear
5:55 PM 48.4 °F - 14.4 °F 26% 30.08 in 10.0 mi South 5.8 mph - N/A   Clear
6:15 PM 46.8 °F - 14.4 °F 27% 30.08 in 10.0 mi South 5.8 mph - N/A   Clear
6:35 PM 46.9 °F - 14.7 °F 27% 30.08 in 10.0 mi South 5.8 mph - N/A   Clear
6:55 PM 46.9 °F - 14.9 °F 28% 30.08 in 10.0 mi SSW 5.8 mph - N/A   Clear
7:15 PM 45.7 °F 42.0 °F 15.3 °F 30% 30.07 in 10.0 mi South 6.9 mph - N/A   Clear
7:35 PM 45.5 °F 42.5 °F 15.1 °F 29% 30.08 in 10.0 mi SSW 5.8 mph - N/A   Clear
7:55 PM 44.2 °F 41.0 °F 15.6 °F 32% 30.07 in 10.0 mi SSW 5.8 mph - N/A   Clear
8:15 PM 40.6 °F - 16.3 °F 37% 30.07 in 10.0 mi Calm Calm - N/A   Clear
8:35 PM 39.7 °F - 16.5 °F 39% 30.06 in 10.0 mi Calm Calm - N/A   Clear
8:55 PM 35.1 °F 32.2 °F 17.6 °F 49% 30.06 in 10.0 mi WSW 3.5 mph - N/A   Clear
9:15 PM 34.3 °F - 18.5 °F 52% 30.05 in 10.0 mi Calm Calm - N/A   Clear
9:35 PM 33.6 °F - 18.5 °F 54% 30.06 in 10.0 mi Calm Calm - N/A   Clear
9:55 PM 35.1 °F - 18.3 °F 51% 30.05 in 10.0 mi Calm Calm - N/A   Clear
10:15 PM 34.7 °F - 18.3 °F 51% 30.04 in 10.0 mi Calm Calm - N/A   Clear
10:35 PM 34.5 °F - 18.5 °F 52% 30.03 in 10.0 mi Calm Calm - N/A   Clear
10:55 PM 32.4 °F - 19.6 °F 59% 30.02 in 10.0 mi Calm Calm - N/A   Clear
11:15 PM 32.0 °F - 20.3 °F 62% 30.02 in 10.0 mi Calm Calm - N/A   Clear
11:35 PM 32.2 °F - 19.6 °F 60% 30.02 in 10.0 mi Calm Calm - N/A   Clear
11:55 PM 32.0 °F - 20.1 °F 62% 30.01 in 10.0 mi Calm Calm - N/A   Clear